STARLINK-1985 (47631 NORAD) Tracking and Keplerian Element Data

This shows tracking and keplerian element data for the satellite.

Feedback or suggestion? Click here.




ElementValue
Catalog47631
NameSTARLINK-1985
Epoch Orbit178
Epoch Day59.91667824
Epoch Year2021
RAAN38.0869
Inclination53.0499
Eccentricity0.0001707
Argument of Perigee101.5432
Mean Anonmoly34.7692
Mean Motion15.8658413
Decay Rate0.0010728
L11 47631U 21012M 21059.91667824 .00107280 00000-0 41227-3 0 9994
L22 47631 53.0499 38.0869 0001707 101.5432 34.7692 15.86584130 1786

Live tracking and technical data element details for STARLINK-1985 (NORAD 47631). STARLINK-1985 can be tracked NOW for your location showing map with azimuth and elevation plus other details from your city location.

Track the satellite on the map from your city or location and see movement details for azimuth, elevation, latitude, longitude, range, height, and movement on the map or in text.







IsCatalogInMostPopularTable: catalog: 47631, numindb: 4
Update: records affected: 1



GetName: 47631 STARLINK-1985

Hit Count: updated at: Mon, 01 Mar 2021 17:01:46 GMT